Voltar ao catálogo

SHIJIAN 6 02B

SJ-6 02B

AtivoCiênciaSSO
NORAD 29506·PAYLOAD·🇨🇳 China

Lançado Oct 23, 2006 de Taiyuan Satellite Launch Center

Loading…

Próximas Passagens (próximas 24 horas)

TLE

AtualizadoSource: Space-Track

Época: Sep 14, 2026, 12:22 UTC

1 29506U 06046B   26257.51591904  .00000257  00000-0  24527-4 0  9992
2 29506  97.6982 285.9639 0016064 127.1662 233.1032 15.01477596 84145

Acompanhe SHIJIAN 6 02B em tempo real com AllMySat

Download on the App Store